, LA

(GMT )
East Cameron 278

Weather History for KEHC - February, 2014

Change the Weather History Date:

Wednesday, February 26, 2014

  Actual Average Record
Temperature  
Mean Temperature 58 °F -  
Max Temperature 68 °F - - ()
Min Temperature 48 °F - - ()
Degree Days  
Heating Degree Days 7    
Growing Degree Days 8 (Base 50)    
Moisture  
Dew Point 52 °F    
Average Humidity 91    
Maximum Humidity 100    
Minimum Humidity 71    
Precipitation  
Precipitation 0.00 in - - ()
Sea Level Pressure  
Sea Level Pressure 29.96 in    
Wind  
Wind Speed 20 mph (North)    
Max Wind Speed 38 mph    
Max Gust Speed 43 mph    
Visibility 4 miles    
Events Fog    
T = Trace of Precipitation, MM = Missing Value Source: NWS Daily Summary

Daily Weather History Graph

Daily Weather History Graph

Search for Another Location

Airport or City:

Trip Planner

Search our weather history database for the weather conditions in past years. The results will help you decide how hot, cold, wet, or windy it might be!

Date:

Astronomy

Feb. 26, 2014 Rise Set
Actual Time 6:39 AM CST 6:09 PM CST
Civil Twilight 6:15 AM CST 6:33 PM CST
Nautical Twilight 5:48 AM CST 7:00 PM CST
Astronomical Twilight 5:21 AM CST 7:28 PM CST
Moon 4:15 AM CST (2/26) 3:33 PM CST (2/26)
Length of Visible Light 12h 17m
Length of Day
11h 30m
Waning Crescent, 10% of the Moon is Illuminated
Feb 26
Waning Crescent
Mar 1
New
Mar 8
First Quarter
Mar 16
Full
Mar 23
Last Quarter

Hourly Weather History & Observations

Time (CST) Temp. Dew Point Humidity Pressure Visibility Wind Dir Wind Speed Gust Speed Precip Events Conditions
12:35 AM 68.0 °F 68.0 °F 100% 29.90 in 0.2 mi SW 12.7 mph - N/A Fog Fog
1:10 AM 68.0 °F 68.0 °F 100% 29.90 in 0.2 mi SW 11.5 mph - N/A Fog Fog
1:35 AM 68.0 °F 68.0 °F 100% 29.89 in 0.2 mi SW 11.5 mph - N/A Fog Fog
1:50 AM 68.0 °F 68.0 °F 100% 29.89 in 0.2 mi SW 9.2 mph - N/A Fog Fog
2:10 AM 68.0 °F 68.0 °F 100% 29.88 in 0.2 mi SW 9.2 mph - N/A Fog Fog
2:30 AM 68.0 °F 68.0 °F 100% 29.88 in 0.2 mi WSW 9.2 mph - N/A Fog Fog
2:40 AM 68.0 °F 68.0 °F 100% 29.88 in 0.2 mi SW 9.2 mph - N/A Fog Fog
3:20 AM 68.0 °F 68.0 °F 100% 29.86 in 0.2 mi SW 8.1 mph - N/A Fog Fog
4:15 AM 68.0 °F 68.0 °F 100% 29.85 in 0.2 mi WSW 6.9 mph - N/A Fog Fog
4:30 AM 68.0 °F 68.0 °F 100% 29.85 in 0.2 mi WSW 6.9 mph - N/A Fog Fog
4:55 AM 68.0 °F 68.0 °F 100% 29.85 in 0.2 mi WNW 8.1 mph - N/A Fog Fog
5:05 AM 68.0 °F 68.0 °F 100% 29.85 in - NW 8.1 mph - N/A   Overcast
5:30 AM 68.0 °F 68.0 °F 100% 29.85 in 0.2 mi West 9.2 mph - N/A Fog Fog
5:50 AM 68.0 °F 68.0 °F 100% 29.86 in 0.2 mi West 10.4 mph - N/A Fog Fog
6:15 AM 66.2 °F 66.2 °F 100% 29.87 in 0.2 mi NNW 10.4 mph - N/A Fog Fog
6:20 AM 66.2 °F 66.2 °F 100% 29.87 in 0.2 mi NNW 10.4 mph - N/A Fog Fog
6:55 AM 59.0 °F 59.0 °F 100% 29.88 in 2.0 mi North 34.5 mph - N/A   Mostly Cloudy
7:20 AM 57.2 °F 57.2 °F 100% 29.89 in 2.0 mi North 38.0 mph - N/A   Scattered Clouds
7:55 AM 55.4 °F 55.4 °F 100% 29.92 in 2.0 mi NNE 33.4 mph 42.6 mph N/A   Partly Cloudy
8:15 AM 57.2 °F 57.2 °F 100% 29.92 in 1.2 mi NNE 36.8 mph - N/A   Clear
8:55 AM 55.4 °F 55.4 °F 100% 29.96 in 1.0 mi NNE 33.4 mph - N/A   Scattered Clouds
9:35 AM 53.6 °F 53.6 °F 100% 29.97 in 0.8 mi NNE 33.4 mph - N/A   Mist
9:40 AM 53.6 °F 53.6 °F 100% 29.97 in 0.8 mi NNE 31.1 mph - N/A   Mist
10:00 AM 53.6 °F 53.6 °F 100% 29.97 in 0.5 mi NNE 33.4 mph - N/A   Mist
10:20 AM 53.6 °F 53.6 °F 100% 29.98 in 0.8 mi NNE 34.5 mph - N/A   Mist
10:45 AM 51.8 °F 51.8 °F 100% 29.99 in 3.0 mi North 34.5 mph - N/A   Scattered Clouds
11:35 AM 51.8 °F 50.0 °F 94% 29.99 in 5.0 mi NNE 29.9 mph - N/A   Mostly Cloudy
11:50 AM 51.8 °F 50.0 °F 94% 29.99 in 2.5 mi NNE 32.2 mph - N/A   Mostly Cloudy
12:10 PM 50.0 °F 50.0 °F 100% 29.98 in - NNE 31.1 mph - N/A   Unknown
12:20 PM 51.8 °F 50.0 °F 94% 29.99 in 3.0 mi NNE 28.8 mph - N/A   Mist
12:55 PM 50.0 °F 48.2 °F 94% 29.96 in 2.5 mi NNE 31.1 mph 38.0 mph N/A   Scattered Clouds
1:15 PM 50.0 °F 48.2 °F 94% 29.95 in 2.5 mi NNE 29.9 mph 36.8 mph N/A   Partly Cloudy
1:35 PM 50.0 °F 48.2 °F 94% 29.95 in 3.0 mi NNE 27.6 mph 33.4 mph N/A   Scattered Clouds
1:45 PM 50.0 °F 48.2 °F 94% 29.95 in 3.0 mi NNE 26.5 mph 32.2 mph N/A   Mostly Cloudy
2:15 PM 50.0 °F 48.2 °F 94% 29.94 in 2.0 mi NNE 25.3 mph - N/A   Scattered Clouds
2:35 PM 50.0 °F 48.2 °F 94% 29.96 in 4.0 mi NNE 26.5 mph - N/A   Scattered Clouds
2:55 PM 51.8 °F 48.2 °F 88% 29.95 in 10.0 mi NNE 24.2 mph - N/A   Overcast
3:15 PM 51.8 °F 48.2 °F 88% 29.95 in 9.0 mi NNE 26.5 mph - N/A   Overcast
3:30 PM 51.8 °F 48.2 °F 88% 29.96 in 10.0 mi NNE 27.6 mph 34.5 mph N/A   Overcast
3:55 PM 51.8 °F 48.2 °F 88% 29.95 in 3.0 mi North 28.8 mph - N/A   Mostly Cloudy
4:15 PM 50.0 °F 46.4 °F 87% 29.96 in 3.0 mi North 28.8 mph - N/A   Mostly Cloudy
4:35 PM 50.0 °F 46.4 °F 87% 29.96 in 2.0 mi NNE 27.6 mph - N/A   Mostly Cloudy
4:55 PM 50.0 °F 46.4 °F 87% 29.96 in 4.0 mi NNE 32.2 mph - N/A   Overcast
5:15 PM 51.8 °F 46.4 °F 82% 29.98 in 9.0 mi NNE 28.8 mph - N/A   Overcast
5:35 PM 50.0 °F 44.6 °F 82% 29.98 in 5.0 mi NNE 27.6 mph - N/A   Haze
5:55 PM 50.0 °F 44.6 °F 82% 29.99 in 3.0 mi NNE 26.5 mph - N/A   Haze
6:15 PM 50.0 °F 44.6 °F 82% 30.00 in 4.0 mi NNE 26.5 mph - N/A   Haze
6:35 PM 50.0 °F 44.6 °F 82% 30.01 in 3.0 mi NNE 27.6 mph - N/A   Haze
6:55 PM 50.0 °F 42.8 °F 76% 30.01 in 9.0 mi NNE 28.8 mph - N/A   Mostly Cloudy
7:15 PM 50.0 °F 42.8 °F 76% 30.02 in 9.0 mi NNE 26.5 mph 33.4 mph N/A   Overcast
7:35 PM 50.0 °F 42.8 °F 76% 30.03 in 8.0 mi NNE 28.8 mph - N/A   Overcast
7:55 PM 48.2 °F 42.8 °F 82% 30.04 in 5.0 mi NNE 25.3 mph - N/A   Haze
8:15 PM 48.2 °F 42.8 °F 82% 30.05 in 6.0 mi North - - N/A   Haze
8:35 PM 48.2 °F 42.8 °F 82% 30.05 in 7.0 mi North 28.8 mph - N/A   Overcast
8:55 PM 50.0 °F 42.8 °F 76% 30.06 in 10.0 mi NNE 25.3 mph 32.2 mph N/A   Overcast
9:15 PM 48.2 °F 42.8 °F 82% 30.08 in 7.0 mi North 26.5 mph - N/A   Overcast
9:35 PM 48.2 °F 42.8 °F 82% 30.07 in 9.0 mi NNE 25.3 mph - N/A   Overcast
9:55 PM 48.2 °F 42.8 °F 82% 30.08 in 10.0 mi NNE 23.0 mph 29.9 mph N/A   Overcast
10:15 PM 48.2 °F 41.0 °F 76% 30.08 in 10.0 mi NNE 24.2 mph - N/A   Overcast
10:35 PM 48.2 °F 42.8 °F 82% 30.07 in 8.0 mi NNE 24.2 mph - N/A   Overcast
10:55 PM 48.2 °F 41.0 °F 76% 30.07 in 10.0 mi North 23.0 mph 29.9 mph N/A   Overcast
11:15 PM 50.0 °F 41.0 °F 71% 30.08 in 10.0 mi NNE 23.0 mph - N/A   Overcast
11:35 PM 48.2 °F 39.2 °F 71% 30.07 in 10.0 mi North 23.0 mph - N/A   Overcast
11:55 PM 48.2 °F 39.2 °F 71% 30.06 in 10.0 mi NNE 23.0 mph - N/A   Overcast